星链-1009 (STARLINK-1009 )

导读 | 豆包AI

STARLINK-1009是美国SpaceX公司星链(Starlink)星座中的一颗卫星,于2019年11月11日发射升空,属于星链项目早期部署的卫星之一,星链项目旨在通过近地轨道卫星星座,为全球提供高速低延迟的互联网接入服务。 作为星链网络的组成部分,该卫星运行在近地轨道,通过与星座中其他卫星协同工作,配合地面站实现信号传输,推动全球覆盖的卫星互联网服务构建,助力偏远地区网络覆盖,并为特殊场景提供连接支持。

基本信息
目录编号:
44715
目录名称:
STARLINK-1009
国际标识:
2019-074C
轨道中心:
EARTH
卫星名称:
星链-1009
卫星全名:
星链-1009 (STARLINK-1009 )
卫星状态:
已陨落 最后检测时间 2025-02-21
发射日期:
2019-11-11 UTC
国别 :
美国 (US)
星等 :
--
轨道信息
数据来源 国际轨道数据
星历时间: 2025-02-21T07:29:12+0800
轨道信息已过期386天
半长轴: 6540.823km
偏心率: 0.0004716
轨道倾角: 53.030°
近地点辐角 191.081°
升交点赤经 55.434°
平近点角 254.182°
近地点: 159.603km
远地点: 165.773km
周期: 87.742分钟
每日圈数: 16.411724
详细信息
固有亮度:
5
最大亮度:
2.5
卫星平台:
Starlink V1.0
覆盖范围:
全球
运营商:
太空探索技术公司
运营商所在国:
美国
制造商(研发单位):
太空探索技术公司
制造商所在国:
美国
使用方式:
暂无
卫星简介
星链(Starlink)计划是由太空探索技术公司(SpaceX)提出的一个巨型低轨卫星互联网星座项目,计划在2019年至2024年间在太空搭建由约1.2万颗卫星组成的“星链”网络,其中1584颗将部署在地球上空550千米处的近地轨道,并从2020年开始工作。该卫星仍在工作。